User: anonymous   Login
Location: Costa Valle Imagna
(45.8000°N, 9.5000°E)
Time: 16:20:23
(UTC+00:00)
Language:

Cosmos 407 Rocket - Orbit

View from above orbital plane
View from above orbital plane
View from above satellite
View from above satellite

Ground track
Ground track

The orbit data is extracted from the following two-line orbital elements,

1  5175U 71035B   20152.13196571 -.00000011  00000-0  52033-5 0  9998
2  5175  74.0500  23.7440 0030458 323.7430  36.1659 14.37979502570029
Epoch (UTC): 31 May 2020 03:10:01
Eccentricity: 0.0030458
inclination: 74.0500°
perigee height: 743 km
apogee height: 787 km
right ascension of ascending node: 23.7440°
argument of perigee: 323.7430°
revolutions per day: 14.37979502
mean anomaly at epoch: 36.1659°
orbit number at epoch: 57002

The dashed part of the orbit path shows where the satellite is in the earth's shadow,  

DLR